FW3899 Weather Reports


time (UTC)temp
C
wind
direction
speed
KPH
gust
KPH
rain 1hr
cm
rain 24hr
cm
rain mn
cm
humidity
%
barometer
mb
20260902153054 24 288 4.8 12.9 0.00 0.00 0.00 50 1019.5
20260902151601 24 284 9.7 14.5 0.00 0.00 0.00 49 1019.3
20260902150051 25 312 6.4 12.9 0.00 0.00 0.00 50 1019.4
20260902144550 25 251 6.4 11.3 0.00 0.00 0.00 48 1019.5
20260902143050 26 274 14.5 20.9 0.00 0.00 0.00 46 1019.4
20260902141547 26 246 8.0 20.9 0.00 0.00 0.00 47 1019.3
20260902140047 26 290 4.8 20.9 0.00 0.00 0.00 50 1019.6
20260902134544 26 299 6.4 17.7 0.00 0.00 0.00 49 1019.5
20260902133044 25 218 12.9 25.7 0.00 0.00 0.00 47 1019.6
20260902131544 25 248 9.7 22.5 0.00 0.00 0.00 48 1019.6
20260902130140 25 271 6.4 24.1 0.00 0.00 0.00 48 1019.7
20260902124539 25 268 14.5 22.5 0.00 0.00 0.00 49 1019.7
20260902123037 25 282 9.7 17.7 0.00 0.00 0.00 47 1019.8
20260902121535 25 283 14.5 19.3 0.00 0.00 0.00 49 1019.8
20260902120037 25 279 3.2 27.4 0.00 0.00 0.00 53 1019.9
20260902114540 25 306 8.0 17.7 0.00 0.00 0.00 55 1020.3
20260902113030 24 248 9.7 17.7 0.00 0.00 0.00 57 1020.2
20260902111527 23 311 6.4 16.1 0.00 0.00 0.00 61 1020.4
20260902110031 23 282 4.8 16.1 0.00 0.00 0.00 59 1020.5
20260902104541 22 285 9.7 22.5 0.00 0.00 0.00 59 1020.8
20260902103018 22 222 12.9 20.9 0.00 0.00 0.00 62 1020.7
20260902101515 21 276 11.3 19.3 0.00 0.00 0.00 64 1020.8
20260902100013 21 248 12.9 19.3 0.00 0.00 0.00 64 1021.0
20260902094513 21 261 11.3 19.3 0.00 0.00 0.00 68 1021.0
20260902093007 20 259 11.3 20.9 0.00 0.00 0.00 69 1021.0
20260902091503 20 199 1.6 11.3 0.00 0.00 0.00 70 1020.6
20260902090001 20 288 4.8 12.9 0.00 0.00 0.00 70 1020.9
20260902084605 19 271 9.7 16.1 0.00 0.00 0.00 72 1020.7
20260902083109 19 250 11.3 16.1 0.00 0.00 0.00 70 1020.7
20260902081612 19 45 0.0 0.0 0.00 0.00 0.00 74 1020.5
20260902080058 18 78 0.0 0.0 0.00 0.00 0.00 74 1020.4
20260902074547 17 70 0.0 0.0 0.00 0.00 0.00 75 1020.5
20260902073043 17 79 0.0 0.0 0.00 0.00 0.00 78 1020.3
20260902071540 16 316 0.0 0.0 0.00 0.00 0.00 80 1020.5
20260902070038 16 313 0.0 0.0 0.00 0.00 0.00 82 1020.4
20260902064535 15 75 0.0 0.0 0.00 0.00 0.00 82 1020.3
20260902063035 15 205 0.0 0.0 0.00 0.00 0.00 82 1020.4
20260902061528 15 204 0.0 0.0 0.00 0.00 0.00 83 1020.5
20260902060032 13 207 0.0 0.0 0.00 0.00 0.00 86 1020.5
20260902054524 12 207 0.0 0.0 0.00 0.00 0.00 87 1020.5
20260902053019 12 207 0.0 0.0 0.00 0.00 0.00 87 1020.1
20260902051516 12 207 0.0 0.0 0.00 0.00 0.00 87 1020.1
20260902050020 12 207 0.0 0.0 0.00 0.00 0.00 87 1020.1
20260902044532 12 207 0.0 0.0 0.00 0.00 0.00 89 1019.9
20260902043011 11 207 0.0 0.0 0.00 0.00 0.00 87 1020.0
20260902041515 11 207 0.0 0.0 0.00 0.00 0.00 87 1020.0
20260902040011 11 207 0.0 0.0 0.00 0.00 0.00 86 1020.0
20260902034510 11 207 0.0 0.0 0.00 0.00 0.00 87 1019.9
20260902033009 11 207 0.0 0.0 0.00 0.00 0.00 86 1019.9
20260902031516 11 207 0.0 0.0 0.00 0.00 0.00 86 1019.9
20260902030008 11 207 0.0 0.0 0.00 0.00 0.00 86 1019.8
20260902024506 12 207 0.0 0.0 0.00 0.00 0.00 85 1019.8
20260902023004 12 207 0.0 0.0 0.00 0.00 0.00 86 1019.9
20260902021503 12 207 0.0 0.0 0.00 0.00 0.00 84 1019.8
20260902020001 12 207 0.0 3.2 0.00 0.00 0.00 84 1019.8
20260902014603 12 207 1.6 4.8 0.00 0.00 0.00 84 1019.8
20260902013102 12 207 1.6 3.2 0.00 0.00 0.00 85 1019.8
20260902011558 12 207 3.2 4.8 0.00 0.00 0.00 84 1020.0
20260902010058 12 207 0.0 6.4 0.00 0.00 0.00 84 1020.1
20260902004554 12 207 0.0 3.2 0.00 0.00 0.00 83 1020.2
20260902003056 13 207 0.0 3.2 0.00 0.00 0.00 82 1020.1
20260902001552 13 207 3.2 4.8 0.00 0.00 0.00 82 1020.1
20260902000051 13 206 0.0 3.2 0.00 0.00 0.00 82 1020.1
20260901234603 13 206 0.0 4.8 0.00 0.00 0.00 81 1020.1
20260901233053 13 206 0.0 0.0 0.00 0.00 0.00 79 1020.2
20260901231544 14 206 1.6 4.8 0.00 0.00 0.00 77 1020.1
20260901230050 14 206 1.6 4.8 0.00 0.00 0.00 76 1020.1
20260901224544 14 206 0.0 0.0 0.00 0.00 0.00 77 1020.1
20260901223041 15 206 0.0 3.2 0.00 0.00 0.00 76 1020.1
20260901221602 15 206 1.6 3.2 0.00 0.00 0.00 75 1020.0
20260901220036 15 206 1.6 4.8 0.00 0.00 0.00 76 1020.2
20260901214536 15 206 1.6 4.8 0.00 0.00 0.00 77 1020.1
20260901213039 15 206 1.6 4.8 0.00 0.00 0.00 77 1020.2
20260901211537 15 206 3.2 6.4 0.00 0.00 0.00 77 1020.3
20260901210038 15 206 4.8 6.4 0.00 0.00 0.00 77 1020.3
20260901204536 15 206 1.6 4.8 0.00 0.00 0.00 77 1020.3
20260901203047 15 206 4.8 6.4 0.00 0.00 0.00 77 1020.4
20260901201544 15 206 1.6 4.8 0.00 0.00 0.00 77 1020.3
20260901200034 15 206 1.6 4.8 0.00 0.00 0.00 76 1020.1
20260901194531 15 206 1.6 4.8 0.00 0.00 0.00 76 1020.2
20260901193032 16 206 3.2 6.4 0.00 0.00 0.00 75 1020.3
20260901191530 16 206 0.0 3.2 0.00 0.00 0.00 74 1020.2
20260901190035 16 206 0.0 4.8 0.00 0.00 0.00 74 1020.1
20260901184530 17 206 1.6 3.2 0.00 0.00 0.00 72 1019.8
20260901183029 17 206 3.2 4.8 0.00 0.00 0.00 71 1019.6
20260901181528 18 208 1.6 6.4 0.00 0.00 0.00 69 1019.6
20260901180028 20 265 0.0 3.2 0.00 0.00 0.00 65 1019.5
20260901174531 21 314 0.0 3.2 0.00 0.00 0.00 64 1019.4
20260901173027 21 314 0.0 6.4 0.00 0.00 0.00 58 1019.3
20260901171526 22 309 0.0 1.6 0.00 0.00 0.00 55 1019.2
20260901170026 22 307 1.6 6.4 0.00 0.00 0.00 56 1019.3
20260901164525 22 317 1.6 6.4 0.00 0.00 0.00 56 1019.4
20260901163024 22 311 1.6 6.4 0.00 0.00 0.00 57 1019.5
20260901161534 23 303 1.6 8.0 0.00 0.00 0.00 56 1019.4
20260901160034 23 296 4.8 11.3 0.00 0.00 0.00 56 1019.5
20260901154523 22 354 3.2 9.7 0.00 0.00 0.00 55 1019.4